User: anonymous   Login
Location: Caltech
(34.1382°N, 118.1253°W)
Time: 16:10:54
(UTC-08:00)
Language:

ITAMSAT 1 - Orbit

View from above orbital plane
View from above orbital plane
View from above satellite
View from above satellite

Ground track
Ground track

The orbit data is extracted from the following two-line orbital elements,

1 22826U 93061D   16341.91939254 +.00000028 +00000-0 +28412-4 0  9997
2 22826 098.7789 299.5433 0009240 157.4774 202.6815 14.30305899209844
Epoch (UTC): 06 December 2016 22:03:55
Eccentricity: 0.0009240
inclination: 98.7789°
perigee height: 784 km
apogee height: 797 km
right ascension of ascending node: 299.5433°
argument of perigee: 157.4774°
revolutions per day: 14.30305899
mean anomaly at epoch: 202.6815°
orbit number at epoch: 20984

The dashed part of the orbit path shows where the satellite is in the earth's shadow,  

DLR